Location: Nied?wied?
(53.3665°N, 14.8184°E)
Time: 18:33:20
(UTC+00:00)

ISS - Pass Details

Date: 17 May 2021
Orbit: 417 x 422 km, 51.6° (Epoch: 14 June)

Event Time Altitude Azimuth Distance (km) Brightness Sun altitude
Rises 21:40:15 0° 260° (W) 2,366 0.2 -15.2°
Reaches altitude 10° 21:42:21 10° 257° (WSW) 1,503 -0.9 -15.3°
Maximum altitude 21:45:42 65° 176° (S) 468 -3.8 -15.5°
Drops below altitude 10° 21:49:03 10° 94° (E) 1,508 -1.1 -15.6°
Enters shadow 21:49:33 - 93° (E) 1,709 -0.9 -15.6°
